Weather History for Polokwane, South Africa

Change the Weather History Date:

Wednesday, December 19, 2012

  Actual Average Record
Temperature  
Mean Temperature 66 °F -  
Max Temperature 82 °F - - ()
Min Temperature 51 °F - - ()
Cooling Degree Days 2    
Growing Degree Days 16 (Base 50)    
Moisture  
Dew Point 51 °F    
Average Humidity 61    
Maximum Humidity 94    
Minimum Humidity 32    
Precipitation  
Precipitation 0.00 in - - ()
Sea Level Pressure  
Sea Level Pressure 30.07 in    
Wind  
Wind Speed 3 mph ()    
Max Wind Speed 8 mph    
Max Gust Speed -    
Visibility 6.1 miles    
Events      
T = Trace of Precipitation, MM = Missing Value Source: Averaged Metar Reports

Daily Weather History Graph

Daily Weather History Graph

Search for Another Location

Airport:

Trip Planner

Search our weather history database for the weather conditions in past years. The results will help you decide how hot, cold, wet, or windy it might be!

Date:

Astronomy

Dec. 19, 2012 Rise Set
Actual Time 5:11 AM SAST 6:47 PM SAST
Civil Twilight 4:45 AM SAST 7:13 PM SAST
Nautical Twilight 4:15 AM SAST 7:43 PM SAST
Astronomical Twilight 3:43 AM SAST 8:15 PM SAST
Moon 11:17 AM SAST (12/19) 11:36 PM SAST (12/19)
Length of Visible Light 14h 27m
Length of Day
13h 36m
Waxing Crescent, 42% of the Moon is Illuminated
Dec 19
Waxing Crescent
Dec 20
First Quarter
Dec 28
Full
Jan 5
Last Quarter
Jan 11
New

Hourly Weather History & Observations

Time (SAST) Temp. Dew Point Humidity Pressure Visibility Wind Dir Wind Speed Gust Speed Precip Events Conditions
12:00 AM 57.2 °F 51.8 °F 82% 30.12 in - North 3.5 mph - N/A   Unknown
1:00 AM 57.2 °F 50.0 °F 77% 30.12 in - NE 2.3 mph - N/A   Unknown
2:00 AM 55.4 °F 50.0 °F 82% 30.12 in - NNW 1.2 mph - N/A   Unknown
3:00 AM 55.4 °F 50.0 °F 82% 30.12 in - NNW 1.2 mph - N/A   Unknown
4:00 AM 53.6 °F 50.0 °F 88% 30.12 in - NE 2.3 mph - N/A   Unknown
5:00 AM 51.8 °F 50.0 °F 94% 30.12 in 5.0 mi NE 1.2 mph - N/A   Scattered Clouds
6:00 AM 51.8 °F 50.0 °F 94% 30.12 in 6.2 mi ENE 2.3 mph - N/A   Scattered Clouds
7:00 AM 55.4 °F 50.0 °F 82% 30.15 in 6.2 mi NNE 6.9 mph - N/A   Overcast
8:00 AM 57.2 °F 50.0 °F 77% 30.15 in 6.2 mi NE 8.1 mph - N/A   Mostly Cloudy
9:00 AM 59.0 °F 50.0 °F 72% 30.15 in 6.2 mi NE 4.6 mph - N/A   Mostly Cloudy
10:00 AM 62.6 °F 50.0 °F 63% 30.15 in 6.2 mi NNE 5.8 mph - N/A   Scattered Clouds
11:00 AM 68.0 °F 50.0 °F 52% 30.12 in 6.2 mi NNE 5.8 mph - N/A   Scattered Clouds
12:00 PM 71.6 °F 51.8 °F 50% 30.09 in 6.2 mi NNE 4.6 mph - N/A   Scattered Clouds
1:00 PM 75.2 °F 50.0 °F 41% 30.06 in 6.2 mi WNW 3.5 mph - N/A   Partly Cloudy
2:00 PM 80.6 °F 50.0 °F 34% 30.04 in 6.2 mi WNW 2.3 mph - N/A   Partly Cloudy
3:00 PM 82.4 °F 50.0 °F 32% 30.01 in 6.2 mi West 5.8 mph - N/A   Partly Cloudy
4:00 PM 82.4 °F 50.0 °F 32% 29.98 in 6.2 mi SW 4.6 mph - N/A   Partly Cloudy
5:00 PM 82.4 °F 50.0 °F 32% 29.95 in 6.2 mi NE 5.8 mph - N/A   Partly Cloudy
6:00 PM 80.6 °F 48.2 °F 32% 29.95 in 6.2 mi North 3.5 mph - N/A   Partly Cloudy
7:00 PM 78.8 °F 50.0 °F 36% 29.98 in 6.2 mi WNW 4.6 mph - N/A   Partly Cloudy
8:00 PM 73.4 °F 53.6 °F 50% 30.01 in - NE 8.1 mph - N/A   Clear
9:00 PM 71.6 °F 53.6 °F 53% 30.04 in - ENE 6.9 mph - N/A   Unknown
10:00 PM 66.2 °F 53.6 °F 64% 30.04 in - ENE 5.8 mph - N/A   Unknown
11:00 PM 62.6 °F 51.8 °F 68% 30.06 in - NNE 2.3 mph - N/A   Unknown